Other Public Products
Issued by NWS Charleston, SC

Current Version | Previous Version | Graphics & Text | Print | Product List | Glossary On
Versions: 1 2 3 4 5 6 7 8 9 10 11 12 13 14 15 16 17 18 19 20 21 22 23 24 25 26 27 28 29 30 31 32 33 34 35 36 37 38 39 40 41 42 43 44 45 46 47 48 49 50
755
FPUS82 KCHS 260426
OPUCHS

TEST...KCHS/KSAV Gateway Observations...TEST
National Weather Service Charleston SC
1100 PM EST SAT FEB 25 2017

NOTE: "fair" indicates few or no clouds below 12,000 feet with no
significant weather and/or obstructions to visibility.

SCZ050-WAZ558-NCZ071-TXZ119-213-PAZ071-DCZ001-FLZ074-172-MI076-
NYZ176-178-MAZ016-IL014-TNZ027-NJZ106-GAZ044-MD014-260500-
...Gateway Observations for Charleston International...

CITY           SKY/WX    TMP DP  RH WIND       PRES   REMARKS
Chas Airport   CLEAR     62  19  19 NW10      29.91R
Seattle        CLOUDY    41  32  70 SW6       29.99F
Charlotte      CLEAR     49  19  30 NW9       29.94R
Dallas DFW     PTCLDY    46  23  40 S5        30.07S
Dallas Love    PTCLDY    47  24  40 E3        30.09S
Philladelphia  CLOUDY    49  34  56 NW16G25   29.71R
Wash National  PTCLDY    46  23  40 NW23G35   29.83R
Baltimore      PTCLDY    44  26  49 NW13      29.79R
Miami          PTCLDY    71  65  81 W5        29.99R
Detroit        FLURRIES  25  13  60 W13       29.98R WCI  14
Newark         LGT RAIN  49  39  68 NW21G29   29.63R
Laguardia      MOCLDY    48  38  68 NW18      29.63R
J F K          MOCLDY    50  41  71 W16       29.62R
Boston Logan   LGT RAIN  50  47  89 W16G28    29.49R
Ft. Lauderdale PTCLDY    73  64  73 W7        29.97R
Chicago O`Hare CLOUDY    26  14  60 W9        30.03R WCI  17
Chicago Midway CLOUDY    26  13  57 W9        30.04R WCI  17
Houston Bush   PTCLDY    52  36  54 E8        30.10S
Houston Hobby  PTCLDY    54  41  61 CALM      30.09S
Nashville      CLEAR     37  19  48 NW5       30.15S WCI  33
Atlanta        CLEAR     46  24  42 NW13      30.06R

$$

GAZ044-118-TXZ119-213-NCZ071-DCZ001-MDZ014-506-PAZ021-071-NJZ106-
NYZ176-178-MAZ106-OHZ011-021-055-MIZ076-KYZ091-ILZ014-INZ047-
MNZ060-ONZ431-260500-
...Gateway Observations for Savannah International...

CITY           SKY/WX    TMP DP  RH WIND       PRES   REMARKS
Savannah Arpt  CLEAR     62  22  21 NW14      29.96R
Atlanta        CLEAR     46  24  42 NW13      30.06R
Charlotte      CLEAR     49  19  30 NW9       29.94R
Dallas DFW     PTCLDY    46  23  40 S5        30.07S
Houston Bush   PTCLDY    52  36  54 E8        30.10S
Wash National  PTCLDY    46  23  40 NW23G35   29.83R
Wash Dulles    PTCLDY    42  21  43 NW25G32   29.83R
Baltimore      PTCLDY    44  26  49 NW13      29.79R
Philadelphia   CLOUDY    49  34  56 NW16G25   29.71R
Newark         LGT RAIN  49  39  68 NW21G29   29.63R
Laguardia      MOCLDY    48  38  68 NW18      29.63R
J F K          MOCLDY    50  41  71 W16       29.62R
Boston         LGT RAIN  50  47  89 W16G28    29.49R
Pittsburg      FLURRIES  29  19  66 W21       29.94R WCI  16
Akron          FLURRIES  27  15  61 W16G22    29.96R WCI  15
Cleveland      LGT SNOW  28  18  66 W17       29.99R WCI  16
Cincinnati     PTCLDY    28  17  63 SW6       30.05R WCI  22
Columbus       CLOUDY    30  21  70 W8        30.04R WCI  22
Detroit        FLURRIES  25  13  60 W13       29.98R WCI  14
Chicago O`Hare CLOUDY    26  14  60 W9        30.03R WCI  17
Minneapolis    MOCLDY    26  16  65 SW10      29.84F WCI  16
Indianapolis   PTCLDY    26  16  65 W10       30.06R WCI  16
Toronto Canada MOCLDY    28  19  69 W17G25    29.79R WCI  16

$$




USA.gov is the U.S. government's official web portal to all federal, state and local government web resources and services.